Regional Weather Roundup
Issued by NWS

Home | Current Version | Previous Version | Graphics & Text | Print | Product List | Glossary On
Versions: 1 2 3 4 5 6 7 8 9 10 11 12 13 14 15 16 17 18 19 20 21 22 23 24 25 26 27 28 29 30 31 32 33 34 35 36 37 38 39 40 41 42 43 44 45 46 47 48 49 50
000
ASUS43 KLMK 270702
RWRKY
KENTUCKY REGIONAL WEATHER ROUNDUP
NATIONAL WEATHER SERVICE LOUISVILLE KY
300 AM EDT FRI MAR 27 2015

NOTE "FAIR" INDICATES FEW OR NO CLOUDS BELOW 12,000 FEET
WITH NO SIGNIFICANT WEATHER AND/OR OBSTRUCTIONS TO VISIBILITY.

KYZ001>023-026-027-061>063-070>075-270800-
WESTERN AND SOUTH CENTRAL KENTUCKY

CITY           SKY/WX    TMP DP  RH WIND       PRES   REMARKS
PADUCAH        CLEAR     32  29  88 SW3       30.02F
HENDERSON      CLEAR     32  28  86 CALM      30.02S
OWENSBORO      PTCLDY    34  33  96 CALM      30.02F
HOPKINSVILLE   CLEAR     35  33  90 NW6       30.00F WCI  30
BOWLING GREEN  CLEAR     37  34  89 NW3       29.99F
GLASGOW        NOT AVBL
$$

KYZ024-025-028>034-038-045-046-053-270800-
NORTH CENTRAL KENTUCKY

CITY           SKY/WX    TMP DP  RH WIND       PRES   REMARKS
LOUISVILLE/SDF PTCLDY    38  31  76 NW6       29.99F WCI  33
LOUISVILLE/LOU CLEAR     38  34  85 NW5       29.99F WCI  34
FORT KNOX      CLOUDY    37  34  89 NW3       29.96F
$$

KYZ035>037-039>044-047>052-055>060-089>105-270800-
NORTHEAST KENTUCKY

CITY           SKY/WX    TMP DP  RH WIND       PRES   REMARKS
LEXINGTON      PTCLDY    35  33  92 NW3       29.96F FOG
COVINGTON      PTCLDY    36  27  69 N12       29.95F WCI  28
FRANKFORT      CLOUDY    37  34  89 CALM      29.96F
$$

KYZ054-064>069-076>088-106>120-270800-
SOUTHEAST KENTUCKY

CITY           SKY/WX    TMP DP  RH WIND       PRES   REMARKS
JACKSON        CLOUDY    39  36  89 VRB6      29.90F WCI  35
LONDON         CLOUDY    41  35  79 N8        29.92S
SOMERSET       NOT AVBL
MIDDLESBORO    NOT AVBL
MONTICELLO     CLOUDY    41  38  89 N12       29.97F
$$




USA.gov is the U.S. government's official web portal to all federal, state and local government web resources and services.